Погода в Порт-Адриано

Испания     39°34′17″N   2°38′48″E
темп.,
°C
ветер,
м/с
пор.,
м/с
влажн.,
%
обл.,
%
осадки,
мм/ч
давл.,
гПа
погр.,
м
16 апреля, пт
пт1623:00+12св51064100 0.0 1017546
02:00+10ссв5876100 0.0 1016218
05:00+9св4674100 0.0 1015154
08:00+9ссв4865100 0.0 1015257
11:00+15св6743100 0.0 10151358
14:00+17св984180 0.0 10151733
17:00+14св655696 0.2 10151007
20:00+12св796379 0.4 1016712
17 апреля, сб
сб1723:00+9ссв46706 0.0 1018149
02:00+8с44605 0.0 101878
05:00+7с46625 0.0 1017124
08:00+8с356260 0.0 1018119
11:00+13св6537100 0.0 10182042
14:00+10с4461100 0.4 10191188
17:00+11ююз346478 1.1 10181088
20:00+9юз347286 1.2 1018223
18 апреля, вс
вс1823:00+7зсз228254 0.3 1020174
02:00+7сз338323 0.3 1019131
05:00+7сз238434 0.0 101887
08:00+8с33835 0.4 101976
11:00+14зюз225891 0.4 1020939
14:00+16зюз55515 1.3 10201481
17:00+15зюз77480 0.1 10191177
20:00+12зюз45580 0.1 1020223
19 апреля, пн
пн1923:00+10зюз33710 0.0 1022148
02:00+10зюз34750 0.0 1021180
05:00+11зюз34770 0.0 1020195
08:00+12юз467633 0.0 1019250
11:00+16юз676323 0.0 1018833
14:00+17юз77615 0.0 1017870
17:00+17ююз6662100 0.0 1015686
20:00+15ю3474100 0.0 1014152
20 апреля, вт
вт2023:00+13ююв1181100 0.0 101518
02:00+13ююв2281100 0.0 101435
05:00+13ююв2277100 0.0 101325
08:00+14в2376100 0.0 101280
11:00+14сз5474100 1.0 1013398
14:00+15зюз2361100 1.7 1012693
17:00+13юз2381100 0.3 1012316
20:00+13сз118118 0.3 1012125